Wind_Speed
11 11 10 10 9 8 8 8 7 6 5 5 5 5 5 5 5 5 5 6 7 8 9 10 11 12 13 14 15 16 16 17 18 19 19 20 21 22 23 23 24 24 24 25 25 25 25 25 25 24 24 24 24 24 24 23 23 23 23 24 24 25 25 26 27 27 28 29 29
11 10 10 11 10 9 8 7 6 6 5 5 5 5 5 4 5 5 6 7 8 9 11 12 13 13 14 15 16 16 17 18 19 20 21 22 23 23 24 24 25 25 25 25 25 25 25 24 24 24 24 23 23 23 23 23 23 23 23 24 24 25 25 26 26 27 27 28 28
11 11 11 11 10 9 8 7 7 6 7 6 6 5 4 4 5 6 7 8 9 11 12 13 13 14 15 15 16 17 18 19 20 21 22 23 23 24 24 25 25 25 25 25 25 25 24 24 24 24 24 23 23 23 23 23 23 23 24 24 24 24 24 25 25 25 26 26 27
12 12 11 11 11 10 9 8 7 7 7 6 5 4 4 4 6 7 8 9 10 11 12 13 13 14 14 14 15 16 18 19 20 21 22 23 23 24 24 24 25 25 25 25 25 25 25 24 24 24 24 24 24 24 24 23 23 23 23 24 24 24 24 25 25 25 25 25 26
12 12 12 11 11 10 9 7 6 6 5 4 3 3 4 6 7 8 9 10 11 12 13 14 15 15 15 15 16 17 19 20 21 21 22 22 23 23 23 24 24 24 24 24 24 24 24 24 24 24 24 24 24 24 24 24 24 24 24 24 24 24 24 24 25 25 25 25 25
12 12 11 10 9 8 7 6 5 4 3 2 2 4 6 8 9 10 11 12 13 13 14 15 16 16 16 17 18 19 20 20 21 21 22 23 23 23 24 24 24 24 24 24 24 24 24 24 24 24 24 24 24 24 24 24 24 25 25 25 25 24 24 25 25 25 25 25 26
12 11 10 9 7 6 6 5 4 3 2 2 4 7 9 10 11 12 13 13 14 15 16 17 17 17 17 18 19 20 21 21 22 22 23 23 24 24 24 24 24 25 25 25 25 25 25 24 24 24 24 24 24 24 24 24 24 25 25 25 25 25 25 25 25 25 25 26 27
11 10 10 8 7 6 5 4 3 2 3 5 7 9 10 11 12 13 14 14 15 16 17 17 17 17 18 19 20 20 21 22 22 23 23 24 24 24 25 25 25 25 25 25 25 25 25 24 24 24 24 24 24 24 24 24 25 25 26 26 26 26 26 26 26 26 26 27 28
10 9 9 8 6 5 4 2 2 4 6 8 9 10 11 11 12 13 14 15 15 16 16 16 16 17 18 19 20 21 21 22 22 23 23 24 24 24 24 25 25 25 25 24 24 25 25 24 24 24 24 24 24 25 25 25 26 27 27 27 28 28 28 28 28 28 28 29 29
9 8 7 6 5 4 3 3 5 6 8 9 9 10 11 11 12 13 14 14 15 15 16 16 16 17 18 19 20 21 21 22 22 23 23 24 24 24 24 24 25 25 25 24 24 24 24 25 25 25 25 25 26 27 27 27 28 28 29 29 29 29 30 30 30 30 31 31 31
8 7 6 5 5 6 6 7 7 8 9 9 10 10 11 12 12 13 14 15 16 17 17 17 18 18 19 20 21 21 22 22 22 23 24 24 24 25 25 25 25 26 26 26 25 25 25 25 26 26 27 27 28 28 29 29 30 30 31 31 31 31 32 32 32 32 32 32 33
7 6 6 6 6 7 7 8 8 9 9 9 10 11 12 12 14 15 16 17 17 18 18 18 19 19 20 21 21 22 22 23 23 24 24 25 25 25 26 26 26 26 27 27 26 26 26 26 27 27 28 29 29 29 29 30 30 31 31 32 32 32 33 33 33 33 33 33 33
6 5 5 6 7 7 8 8 8 9 9 10 10 11 12 14 15 16 16 17 17 18 18 18 19 19 20 21 21 22 22 23 23 24 24 25 25 26 26 26 27 27 27 27 27 26 26 27 28 28 29 30 30 30 30 30 30 31 31 32 32 33 33 34 34 34 34 34 34
4 4 5 6 7 7 8 8 8 9 9 10 11 12 14 15 15 16 16 16 17 17 18 18 19 19 20 20 21 22 22 23 24 24 25 25 26 26 26 27 27 27 27 27 27 27 27 28 28 29 30 30 31 31 31 31 31 31 32 32 33 33 33 34 34 34 34 34 35
2 3 4 5 6 7 8 8 9 9 10 11 12 13 14 15 15 15 15 16 16 17 18 18 19 19 20 21 21 22 23 23 24 25 25 26 26 26 27 27 27 27 27 27 27 28 28 29 29 30 30 31 31 32 32 32 32 32 32 33 33 33 34 34 34 34 34 34 34
2 3 5 6 6 7 8 9 9 10 11 12 13 14 14 14 15 15 15 15 16 17 18 18 19 20 20 21 21 22 23 23 24 25 25 26 26 26 27 27 27 27 28 28 28 28 29 29 29 30 30 31 31 32 32 32 32 33 33 33 34 34 34 34 34 34 34 34 35
4 5 6 7 7 8 9 10 10 11 12 13 13 14 14 14 14 15 15 16 17 17 18 19 20 20 21 21 22 22 23 23 24 24 25 25 26 26 27 27 27 28 28 28 29 29 29 30 30 30 30 31 31 32 32 32 33 33 33 34 34 34 34 34 34 34 34 34 35
5 6 7 8 9 9 10 11 12 12 13 13 13 14 14 14 15 16 16 17 18 18 19 20 20 21 21 22 22 22 23 23 24 25 25 26 26 27 27 28 28 28 28 28 29 29 30 30 30 30 30 31 31 31 32 32 32 33 33 34 34 34 34 34 34 33 34 34 34
6 7 8 8 9 10 11 11 12 12 13 13 13 14 14 15 16 17 17 18 18 19 20 21 21 21 22 22 23 23 23 24 25 26 26 27 27 27 28 28 28 28 28 29 29 29 30 30 30 30 30 30 31 31 32 32 32 33 33 33 33 33 33 33 33 33 33 33 33
7 7 8 9 10 10 11 11 11 12 13 13 14 14 15 16 17 17 18 19 19 20 20 21 22 22 22 23 23 24 24 24 25 26 26 27 27 27 28 28 28 29 29 29 29 29 29 29 30 30 30 30 30 31 31 31 32 32 32 32 31 31 31 31 31 30 31 31 31
7 8 9 9 10 10 10 11 11 12 13 13 14 15 16 16 17 18 18 19 20 20 21 21 22 22 23 23 24 24 25 25 25 26 26 26 27 27 28 28 28 28 29 29 29 29 29 29 29 29 30 30 30 30 30 30 30 30 30 30 29 29 29 29 28 29 29 30 30
8 8 9 9 9 9 10 11 11 12 13 14 15 15 16 17 17 18 19 19 20 20 21 21 22 23 23 24 24 25 25 25 25 26 26 27 27 27 27 27 28 28 28 28 28 28 29 29 29 29 29 29 29 29 28 27 26 26 26 27 27 28 28 29 29 29 30 30 31
8 8 8 9 9 10 10 11 12 13 14 14 15 16 16 17 18 18 19 19 20 20 21 21 22 22 23 24 25 25 26 26 26 27 27 27 28 28 28 27 28 28 28 28 28 28 28 28 27 27 27 27 26 26 25 24 24 24 25 26 27 27 28 29 29 29 30 30 30
9 8 8 9 9 10 11 12 12 13 14 15 15 16 17 17 18 18 19 19 20 20 20 21 21 22 24 24 25 26 26 27 27 28 28 28 28 28 27 27 27 27 27 27 27 26 26 26 25 25 25 25 25 24 24 24 25 25 26 27 27 27 28 28 28 29 29 30 30
9 9 9 9 10 11 11 12 13 13 14 15 16 16 17 18 18 18 19 19 20 20 21 21 22 23 24 25 25 26 26 27 27 27 27 27 27 27 26 26 26 26 26 26 26 27 26 25 24 23 23 24 24 24 25 25 25 25 26 27 27 28 28 28 29 29 29 30 30
9 9 9 10 10 11 11 12 13 13 14 15 16 17 17 18 18 19 19 20 20 21 21 22 23 24 24 25 25 26 26 26 26 26 26 26 26 26 26 26 26 26 26 26 26 26 26 26 24 23 22 23 24 25 25 26 26 26 26 27 27 28 28 28 29 29 30 30 30
9 9 9 10 10 11 12 12 13 14 15 16 16 17 18 19 19 19 20 20 21 22 22 22 23 23 24 24 24 25 25 25 25 25 26 26 27 27 27 27 27 26 26 26 27 26 26 25 25 25 24 24 25 25 25 26 26 27 27 27 28 28 28 29 30 30 30 30 30
9 9 9 10 10 11 12 12 13 14 15 16 17 18 18 19 20 20 21 21 22 22 22 22 23 22 22 23 23 24 24 25 25 26 26 27 27 27 27 27 27 27 27 27 27 27 26 26 25 26 26 25 25 26 27 27 27 27 27 27 27 28 28 29 30 30 30 30 30
9 9 9 10 10 11 12 13 14 15 15 16 17 18 19 19 20 21 21 22 22 23 23 22 22 22 22 23 24 25 25 26 26 26 26 27 27 27 27 27 27 27 27 27 27 27 26 26 26 27 27 26 26 26 26 26 26 26 26 25 26 26 27 28 28 28 28 28 29
9 9 9 9 10 11 12 13 14 15 16 16 17 18 19 20 21 21 22 22 23 23 23 23 23 23 24 25 25 26 26 26 26 26 26 26 27 27 27 27 27 27 27 27 27 27 27 27 27 28 28 28 28 28 27 27 26 26 26 26 26 27 27 28 28 29 29 28 28
9 9 9 9 10 11 12 13 14 15 16 17 18 19 20 20 21 22 22 23 23 23 24 24 24 25 25 26 26 26 26 26 26 26 26 26 26 27 27 27 28 27 27 27 27 27 28 28 28 28 28 28 28 28 27 27 27 27 27 27 27 28 28 29 29 29 30 30 30
8 8 9 10 11 12 13 14 15 15 16 17 18 19 20 20 21 22 23 23 23 24 24 24 24 25 25 26 26 26 26 27 26 26 26 26 26 27 27 27 27 27 26 26 27 28 28 28 28 28 28 29 29 29 29 29 28 28 28 28 29 29 30 29 30 30 30 31 30
8 9 9 11 12 13 14 14 15 16 17 17 18 19 20 21 22 23 23 23 23 23 24 24 24 25 25 26 26 26 26 26 26 26 26 26 26 27 27 27 26 26 26 27 27 28 28 29 29 29 29 30 30 30 29 29 28 28 27 28 28 29 29 30 30 31 31 31 31
8 9 10 11 12 13 14 15 16 16 17 18 19 19 20 21 22 23 23 23 23 23 23 24 24 25 25 26 26 26 26 26 26 26 26 26 26 26 26 26 25 26 26 27 28 29 29 29 29 29 30 30 30 29 28 27 27 27 27 28 28 28 29 30 30 31 31 32 32
8 9 10 11 13 14 15 16 16 17 18 19 19 20 20 21 22 22 23 23 23 23 24 24 24 25 25 26 26 26 26 26 26 26 25 25 25 25 26 26 26 27 27 28 28 29 29 29 29 30 30 30 29 28 26 26 26 26 27 27 28 28 29 29 30 30 31 31 31
9 9 10 12 13 14 15 16 17 17 18 19 20 20 21 21 22 22 23 23 23 24 24 25 25 25 25 26 26 25 25 25 25 25 25 25 24 25 25 26 27 27 28 28 28 29 29 29 29 30 30 29 27 26 25 24 24 25 25 26 27 28 28 29 29 29 30 30 31
9 10 11 12 14 15 16 16 17 17 18 19 20 20 21 21 22 22 22 22 23 24 24 25 25 25 26 26 25 25 25 25 25 25 25 24 24 24 25 26 27 28 28 28 28 28 29 29 30 30 29 28 26 25 24 23 23 24 25 25 26 27 28 28 28 29 29 30 30
10 11 12 13 14 15 16 16 17 17 18 19 20 20 21 21 22 22 22 22 23 24 24 25 25 26 26 26 26 25 25 24 24 24 24 24 24 24 25 27 27 28 28 28 28 29 29 30 30 30 29 28 26 25 24 23 24 24 24 25 26 26 26 25 25 26 27 28 29
11 12 13 14 15 15 16 16 17 18 18 19 20 21 21 22 22 22 22 22 23 24 24 25 26 26 26 26 25 25 25 24 23 23 23 24 24 25 26 27 27 28 28 28 29 29 30 30 30 30 30 28 27 25 24 23 23 23 24 24 24 24 24 23 23 23 24 25 26
12 12 13 14 15 15 16 17 18 18 19 19 20 21 21 22 22 22 23 23 23 24 24 25 26 26 26 25 25 25 24 24 23 23 23 24 25 26 26 26 27 28 28 28 29 29 29 29 29 30 29 28 26 25 24 22 21 21 22 22 22 23 23 23 23 22 22 23 24
12 13 13 14 15 16 16 17 18 18 19 19 20 21 21 22 22 23 23 23 24 24 25 25 25 26 25 25 24 24 24 24 24 24 24 25 25 25 25 26 26 27 27 27 28 28 28 29 29 29 29 28 26 24 23 21 20 20 21 22 23 23 23 24 24 24 23 23 23
Wind_Direction
195 197 200 204 206 208 212 215 209 203 206 216 224 232 237 243 250 259 269 277 282 286 288 289 288 288 288 289 289 289 289 289 289 290 291 291 292 292 292 291 290 289 287 286 285 284 283 282 281 280 279 278 277 276 275 274 273 273 273 272 272 272 272 272 272 272 271 271 271
190 191 195 201 200 197 193 190 185 187 195 210 223 232 240 250 263 275 283 287 291 292 292 292 290 290 289 289 289 289 289 289 290 291 291 291 291 291 291 290 289 288 286 285 284 283 281 280 279 278 277 276 275 274 274 273 272 272 272 271 271 271 271 271 270 270 270 270 270
182 182 185 189 184 180 178 180 180 190 203 214 217 222 235 257 275 285 290 293 294 294 293 291 291 290 290 290 289 288 288 288 289 290 290 290 290 290 289 289 288 287 285 284 283 281 280 279 277 276 275 274 273 273 273 273 272 272 271 271 271 271 271 270 270 269 269 268 268
172 170 171 172 173 175 178 181 188 199 209 214 213 218 241 270 283 289 292 294 294 293 291 291 292 292 291 290 288 287 287 287 288 288 288 288 288 288 288 287 286 285 284 283 282 280 279 277 276 275 274 273 272 272 272 272 272 271 271 271 271 270 270 270 269 269 268 267 266
164 164 165 168 173 177 180 183 193 203 207 207 216 243 269 283 290 293 293 293 292 292 291 292 293 292 290 288 286 285 286 287 287 287 286 286 286 286 286 285 284 283 282 281 280 278 277 276 275 274 272 272 271 271 270 271 270 270 270 270 269 269 269 268 268 268 267 266 265
159 160 162 165 168 171 175 180 185 187 187 191 250 279 288 291 292 293 292 292 291 291 292 292 292 290 287 285 284 285 286 286 286 285 285 285 284 284 284 283 282 281 280 279 278 277 275 274 273 272 271 270 270 270 269 269 269 269 268 268 268 267 267 267 267 267 266 266 265
158 158 158 157 156 156 159 165 169 174 194 250 282 291 293 293 292 290 289 289 289 290 291 291 289 286 283 283 284 285 285 285 285 284 284 283 283 283 282 281 280 279 278 277 277 276 274 273 272 271 270 270 270 269 268 267 267 266 266 266 267 267 267 266 266 266 266 265 265
156 154 152 150 148 151 155 162 177 218 265 283 290 292 292 290 288 286 286 286 287 288 288 286 283 281 281 282 283 283 283 283 283 283 282 282 281 281 280 279 278 277 277 276 275 274 273 272 272 271 270 270 269 269 268 267 266 265 265 265 266 266 266 266 266 266 265 265 265
150 149 148 149 150 152 156 177 238 275 287 290 291 290 288 286 284 284 284 285 285 285 284 281 279 278 279 281 281 281 280 280 280 280 280 280 279 279 278 278 277 276 275 275 274 273 273 272 271 270 270 270 269 269 269 268 267 266 265 265 266 266 266 265 265 265 265 264 264
156 159 162 171 180 195 222 257 277 286 289 290 289 287 285 285 284 284 285 285 285 284 281 278 278 278 279 279 279 279 279 279 279 279 279 279 279 279 278 278 278 277 277 276 276 276 275 274 273 272 271 271 270 270 270 269 268 267 266 266 266 265 265 264 264 264 264 264 264
177 185 195 211 229 247 262 275 283 287 288 287 286 286 286 286 286 287 287 287 286 284 281 280 279 280 281 281 280 280 280 280 280 280 281 281 281 280 280 280 280 280 279 279 279 278 278 276 275 274 273 272 271 271 271 270 269 268 267 266 266 265 265 264 263 263 263 263 263
194 203 218 237 253 267 276 283 286 286 285 285 285 286 287 288 288 288 288 287 285 283 282 281 281 282 282 283 283 283 283 282 282 282 282 282 282 282 282 281 281 281 280 280 279 279 278 276 275 274 273 272 271 271 270 270 269 268 267 267 266 265 265 264 263 263 263 263 263
199 216 237 255 268 276 281 283 283 282 282 283 285 287 288 289 288 287 286 284 282 281 281 282 282 283 283 283 284 284 284 284 284 283 283 283 283 282 282 281 281 280 280 279 279 277 276 275 274 273 272 272 271 270 269 269 268 268 267 267 266 265 264 264 263 263 263 263 262
200 231 255 267 275 278 278 277 277 278 280 282 284 286 287 286 285 283 282 280 280 280 281 283 283 283 283 283 284 284 284 284 284 284 283 283 282 282 282 281 280 280 279 278 277 276 274 273 272 272 271 271 270 269 269 268 268 267 267 266 266 265 264 264 264 264 263 263 263
214 252 265 270 271 272 272 273 275 277 280 281 282 283 283 283 282 280 280 279 280 281 282 283 283 283 284 284 284 284 284 284 284 284 283 283 282 282 281 281 280 279 278 278 276 275 273 272 272 271 271 270 270 269 269 268 267 267 266 266 266 265 265 265 265 264 264 263 263
246 259 264 265 265 267 269 271 273 275 276 277 279 280 280 280 280 280 280 281 282 282 282 282 283 284 284 285 284 285 285 284 284 284 283 283 283 282 281 281 280 279 279 278 277 275 274 272 271 271 270 270 269 269 269 268 268 267 267 266 266 266 266 266 265 265 264 264 263
254 259 262 263 265 266 267 267 269 270 272 275 277 279 279 280 281 282 282 283 282 282 282 282 283 283 284 284 284 285 285 284 284 284 283 283 283 282 282 281 280 279 279 278 277 276 274 273 272 271 270 270 269 269 269 268 268 268 267 267 267 266 266 266 266 265 265 264 264
253 257 260 261 262 263 263 264 265 268 271 275 279 280 281 282 283 284 284 283 283 283 283 283 283 283 283 283 283 284 283 283 283 283 282 282 282 281 281 280 279 279 278 277 276 276 275 274 273 272 271 270 270 269 269 269 268 268 268 268 267 267 266 266 266 265 265 265 265
254 256 257 258 259 261 263 264 267 270 274 278 281 283 284 284 284 284 284 284 284 283 283 283 283 283 283 283 283 283 282 282 282 282 281 281 281 280 280 279 279 278 278 277 276 275 275 274 273 273 272 271 271 270 270 269 269 269 268 268 268 267 267 267 266 266 265 265 265
257 258 258 259 260 262 265 268 271 275 278 281 283 284 285 285 284 284 284 284 285 284 284 284 284 283 283 283 283 283 283 282 282 281 281 280 280 279 279 279 279 278 278 277 276 275 275 274 274 273 273 272 272 271 271 271 270 270 270 270 270 269 269 269 268 268 267 266 266
261 260 260 260 262 264 268 272 275 278 281 283 283 284 284 284 284 284 284 284 284 284 284 283 283 284 284 284 285 285 284 283 282 282 281 280 280 279 279 279 278 278 277 277 276 275 275 275 275 274 274 273 273 273 273 273 273 273 272 272 272 272 272 271 271 271 270 269 268
262 261 260 261 264 267 271 274 277 279 281 282 283 283 284 284 284 284 284 284 284 284 284 284 284 285 285 285 286 286 285 284 283 282 281 280 279 279 278 278 278 278 277 277 276 276 276 276 275 275 275 274 274 274 274 275 276 276 276 275 275 274 273 272 272 271 270 269 267
262 260 259 261 264 268 272 275 277 279 281 282 283 285 285 285 285 286 286 286 285 285 284 285 285 285 285 286 286 286 285 284 283 282 281 280 279 279 278 278 278 278 278 277 277 277 277 277 277 277 276 276 276 277 277 278 279 279 278 277 276 275 274 272 271 270 268 267 266
258 256 256 259 264 269 272 275 277 279 282 284 286 287 288 288 288 288 288 287 287 286 285 285 285 286 286 286 286 285 285 284 283 282 281 280 279 279 279 278 278 278 279 278 278 278 278 279 279 279 278 278 278 279 279 279 279 278 277 276 275 274 273 271 269 268 267 266 265
252 252 254 259 265 269 272 275 278 281 284 287 289 290 291 291 291 291 291 290 289 288 287 287 286 287 287 287 286 285 284 283 282 281 281 281 280 280 280 280 279 279 280 279 279 278 278 279 279 279 279 279 279 279 279 279 278 276 275 274 273 272 271 270 268 267 266 265 264
248 250 255 261 266 270 274 277 281 284 287 289 291 292 293 294 295 295 294 293 292 291 290 289 288 288 287 287 286 284 283 281 281 281 281 281 281 281 281 281 281 281 281 280 280 280 280 279 279 279 280 280 280 280 279 278 276 274 272 271 270 269 269 268 267 266 265 264 263
247 251 258 263 268 272 277 281 285 288 290 292 294 295 296 297 298 297 297 295 294 293 292 290 290 288 287 286 285 283 282 282 282 282 282 283 283 283 283 282 282 282 282 282 282 282 282 282 282 282 282 282 281 280 279 278 276 274 273 271 269 268 267 267 267 267 266 265 264
247 253 260 265 271 275 280 285 288 290 293 295 296 298 299 299 299 299 298 297 296 295 294 292 291 289 288 287 286 285 284 284 285 285 285 284 284 283 283 283 283 283 283 283 284 284 285 285 285 284 284 284 282 281 279 277 276 275 273 271 270 268 267 267 267 267 266 266 265
249 255 261 267 273 279 284 288 290 293 295 298 299 300 300 300 300 299 298 298 297 297 296 294 293 292 290 289 288 288 287 287 287 286 286 285 285 284 284 284 284 285 285 286 287 287 288 288 288 287 286 284 282 280 278 277 275 274 272 271 270 269 268 268 268 267 267 266 265
253 258 264 270 276 282 287 290 293 295 298 299 300 301 301 301 300 300 299 299 298 297 296 295 294 292 290 289 289 289 289 288 288 288 288 287 287 286 286 286 287 287 288 289 290 290 290 290 289 288 286 284 281 279 278 276 275 273 272 271 270 269 269 269 268 267 267 266 265
256 262 269 275 281 286 290 293 295 297 299 300 301 301 301 301 301 300 300 299 298 297 296 295 293 291 290 290 290 290 290 291 291 290 290 290 289 289 289 289 289 290 290 291 291 291 290 289 288 286 285 283 281 279 277 275 274 273 272 271 270 270 269 269 268 267 267 266 265
262 269 276 281 286 290 293 296 298 299 300 300 301 301 301 300 300 300 299 299 298 297 296 295 293 292 292 293 293 292 292 293 292 292 291 291 291 291 291 291 291 291 292 292 292 291 290 288 287 286 284 283 281 279 277 276 275 273 272 271 270 269 269 268 268 267 266 265 264
269 277 282 287 290 293 296 298 300 300 301 301 301 300 300 299 300 299 299 298 297 296 295 295 294 294 294 295 295 294 294 294 293 292 292 292 292 292 293 293 293 292 292 292 291 290 289 288 287 285 285 284 282 280 278 277 276 274 273 272 271 270 268 267 267 266 266 265 264
273 280 286 290 294 297 298 300 300 301 301 301 301 300 299 299 299 298 298 297 296 296 295 295 295 295 295 295 295 295 295 294 294 293 293 293 294 294 294 294 293 292 291 291 290 289 289 288 287 287 286 285 284 282 280 278 277 275 274 273 272 270 269 268 267 266 266 265 264
280 286 291 294 296 298 299 300 301 301 301 301 300 299 298 298 297 297 297 297 297 296 296 296 296 296 296 296 296 295 295 295 294 294 294 295 296 296 295 293 292 292 291 290 290 290 289 289 288 288 287 287 285 283 281 279 276 275 274 273 272 272 271 269 268 267 266 264 263
291 295 296 296 297 298 299 300 301 301 301 300 299 298 298 297 297 297 297 298 298 298 297 297 297 297 297 297 297 296 296 296 296 296 296 297 297 297 295 294 293 292 292 291 291 290 290 290 289 289 288 287 286 284 281 279 278 276 275 274 273 273 273 272 270 268 267 266 264
299 300 299 298 298 298 299 300 300 300 299 298 298 298 297 297 298 298 299 299 299 299 299 299 299 298 298 298 298 298 297 297 297 298 298 298 298 297 295 294 293 293 292 292 291 291 290 290 290 289 289 288 286 284 282 280 279 278 277 276 276 276 276 274 272 271 271 270 268
302 302 301 300 300 300 300 300 299 299 298 298 298 298 299 299 299 300 301 301 300 300 299 299 299 299 299 299 299 298 298 298 298 299 299 299 298 296 295 294 293 293 292 292 292 292 291 290 290 290 289 287 286 285 284 282 280 279 278 277 278 279 279 278 277 276 276 275 273
304 304 303 302 301 301 300 300 299 298 298 298 299 299 300 300 300 301 301 301 300 300 299 300 300 300 300 300 300 300 299 299 299 299 299 299 297 295 294 293 292 292 292 292 293 292 292 291 290 290 289 288 287 286 285 282 280 279 279 280 281 283 285 285 285 283 282 280 279
305 305 304 303 302 301 300 299 299 299 299 299 300 300 300 301 301 301 301 301 300 300 300 300 300 300 301 301 301 301 301 301 301 301 299 298 296 295 293 291 291 292 292 292 292 292 291 291 291 291 290 290 288 287 285 284 282 282 285 288 291 293 294 294 292 289 286 285 283
307 306 305 303 302 301 300 299 299 299 300 300 300 300 301 301 301 301 301 301 301 301 301 301 301 301 301 302 302 302 302 302 302 301 299 297 296 294 293 291 292 292 292 292 292 292 292 291 291 291 291 290 289 287 287 288 289 292 296 299 300 300 299 297 295 292 288 286 285
Height
776 777 778 779 781 782 783 784 784 785 786 786 787 787 788 788 789 789 789 790 790 790 790 791 791 791 791 791 791 791 791 791 791 790 790 790 789 789 788 788 787 787 786 786 785 784 784 783 783 782 781 780 779 779 778 777 777 777 776 775 775 774 773 772 771 771 770 770 769
775 776 777 778 779 781 782 783 783 784 785 786 787 787 788 788 788 789 789 789 789 790 790 790 790 790 790 790 790 790 790 790 789 789 788 788 787 787 787 786 786 785 784 784 783 782 782 781 781 780 779 778 777 777 776 776 775 775 774 773 772 772 771 770 769 769 768 768 767
774 775 776 777 779 780 781 782 783 784 785 786 786 787 787 788 788 788 788 789 789 789 789 789 789 789 789 789 789 789 789 788 788 787 787 787 786 786 785 784 784 783 782 782 781 781 780 779 779 778 777 776 776 775 774 773 773 773 772 771 770 770 769 768 767 767 766 766 765
773 774 776 777 778 779 780 781 782 783 784 785 785 786 787 787 787 788 788 788 788 788 788 788 788 788 788 787 787 787 787 787 787 786 785 785 784 784 783 783 782 781 781 780 779 779 778 777 777 776 775 774 773 773 772 772 771 771 770 769 768 768 767 766 765 765 764 764 763
773 774 775 777 778 779 780 781 782 782 783 784 785 785 786 786 787 787 787 787 787 787 787 787 787 787 787 787 786 786 786 785 785 784 784 783 782 782 781 781 780 779 779 778 777 777 776 776 775 774 773 772 772 771 770 770 769 769 768 767 767 766 765 764 764 763 762 762 761
773 774 775 776 777 778 779 781 782 782 783 784 784 785 785 786 786 786 786 786 786 786 786 786 786 785 785 785 785 784 784 784 783 783 782 781 781 780 779 779 778 777 777 776 776 775 774 774 773 772 771 770 769 768 768 768 767 767 766 765 765 764 763 762 762 761 761 760 759
773 774 775 776 777 778 779 781 782 782 783 783 784 784 784 785 785 785 785 785 785 785 785 785 784 784 784 784 783 783 782 782 782 781 780 779 779 778 777 777 776 775 775 774 773 773 772 772 771 770 768 768 767 766 766 766 765 765 764 763 762 762 762 761 760 759 759 758 757
773 774 775 777 777 779 780 781 781 782 782 782 783 783 783 784 784 784 784 784 784 784 783 783 783 783 782 782 782 781 781 780 780 779 778 777 777 776 775 775 774 773 772 772 771 771 770 769 768 767 766 766 765 764 763 763 763 762 762 761 760 760 759 758 758 757 757 756 755
773 774 775 776 778 779 780 780 781 781 782 782 782 782 782 783 783 783 783 783 782 782 782 782 781 781 781 780 780 779 779 778 777 777 776 775 774 774 773 772 772 771 770 770 769 768 767 767 766 765 764 763 762 762 761 761 761 760 759 759 758 757 757 756 756 755 755 754 753
772 773 775 776 777 778 779 780 780 780 781 781 781 781 782 782 782 782 782 781 781 781 780 780 780 779 779 779 778 777 777 776 775 775 774 773 772 772 771 770 769 768 768 767 767 766 765 764 763 762 762 761 760 759 759 759 758 757 757 756 755 755 754 754 753 753 752 752 751
771 773 774 776 777 778 778 779 779 779 780 780 780 780 780 780 780 780 780 780 780 779 779 779 778 778 777 777 776 776 775 774 773 772 772 771 770 769 768 767 767 766 765 765 764 764 763 762 761 760 759 759 758 757 757 756 756 755 754 753 753 752 752 751 751 750 750 749 748
771 772 774 775 776 777 777 777 778 778 778 779 779 779 779 779 779 779 779 778 778 778 777 777 777 776 776 775 774 774 773 772 771 770 769 768 768 767 766 765 765 764 763 762 762 762 761 760 759 758 757 757 756 755 754 754 753 752 752 751 751 750 749 748 748 748 747 747 746
770 772 773 774 775 776 776 777 777 777 777 777 778 778 778 778 778 778 777 777 777 776 776 776 775 775 774 773 772 772 771 770 769 768 767 767 766 765 764 763 763 762 761 761 760 760 759 758 757 756 755 754 754 753 752 752 751 750 749 749 748 747 747 746 746 745 745 744 743
770 771 772 774 774 775 775 776 776 776 777 777 777 777 777 777 777 776 776 775 775 775 774 774 774 773 772 772 771 770 769 768 767 767 766 765 764 763 762 761 761 760 759 758 758 757 757 756 755 754 753 752 751 751 750 750 749 748 747 747 746 745 744 743 743 743 742 742 741
770 771 772 773 773 774 775 775 775 775 776 776 776 776 776 775 775 775 774 774 774 773 773 772 772 771 771 770 769 768 767 767 766 765 764 763 762 761 760 759 758 758 757 756 756 755 754 753 752 752 751 750 749 748 748 747 747 746 745 744 743 742 742 741 741 741 740 739 739
769 770 771 772 773 773 774 774 774 775 775 775 775 775 774 774 773 773 773 773 772 772 772 771 771 770 769 768 767 767 766 765 764 763 762 761 760 759 758 757 757 756 755 754 753 752 752 751 750 750 749 748 747 746 745 745 744 743 742 742 741 740 739 739 738 738 737 737 737
769 770 770 771 772 772 773 773 774 774 774 773 773 773 772 772 772 772 772 771 771 771 770 769 769 768 767 766 766 765 764 763 762 761 760 759 758 757 756 755 754 754 753 752 751 750 749 749 748 747 747 746 745 744 743 742 742 741 740 739 738 738 737 737 736 736 735 734 734
768 769 770 770 771 772 772 772 772 772 772 772 772 772 771 771 771 771 770 770 770 769 768 767 767 766 766 765 764 763 762 761 760 759 758 757 756 755 754 753 752 752 751 750 749 748 747 746 746 745 744 743 742 742 741 740 739 738 737 737 736 735 735 734 734 733 733 732 732
767 768 769 769 770 770 771 771 771 771 771 771 771 771 770 770 770 769 769 768 768 767 767 766 765 764 764 763 762 761 760 759 758 757 756 755 754 753 752 751 750 749 749 748 747 746 745 744 743 742 742 741 740 739 738 737 736 736 735 734 733 733 732 732 731 731 730 730 729
767 767 768 768 769 769 769 769 770 770 770 770 770 769 769 769 768 768 767 767 766 766 765 764 763 762 762 761 760 759 758 757 756 755 754 753 752 751 750 749 748 747 746 745 744 743 742 742 741 740 739 738 737 737 736 735 734 733 732 732 731 730 730 729 729 728 728 727 727
766 767 767 767 768 768 768 769 769 769 769 769 769 768 768 767 767 766 766 765 764 764 763 762 761 760 760 759 758 757 756 755 754 753 752 751 750 749 748 747 746 745 744 743 742 741 740 739 739 738 737 736 735 734 733 732 731 730 730 729 728 728 727 727 727 726 725 725 724
766 766 767 767 767 767 768 768 768 768 768 768 767 767 766 766 765 765 764 763 763 762 761 760 759 758 757 757 756 755 754 753 752 751 749 748 747 747 746 745 744 743 742 741 740 739 738 737 736 735 734 733 732 731 731 730 729 728 727 727 727 726 725 725 724 724 723 723 722
765 766 766 767 767 767 767 767 767 767 767 766 766 765 765 764 763 763 762 762 761 760 759 758 757 757 756 755 754 752 752 750 749 748 747 746 745 744 743 742 741 740 739 738 737 736 735 734 733 732 732 731 730 729 729 728 727 727 726 725 725 724 723 723 722 722 721 720 720
765 765 766 766 767 767 767 767 766 766 765 765 764 764 763 762 762 761 760 760 759 758 757 757 756 755 754 752 752 751 749 748 747 746 744 744 743 742 741 740 739 737 736 735 734 733 732 732 731 730 729 729 728 727 727 727 726 725 725 724 723 722 721 721 720 719 718 717 717
765 765 765 766 766 766 766 765 765 764 764 763 763 762 762 761 760 759 759 758 757 756 756 755 753 752 752 750 749 748 747 746 744 743 742 741 740 739 738 737 736 735 734 732 732 731 730 730 729 728 727 727 727 726 725 725 724 723 723 722 721 720 719 718 717 716 716 715 714
764 764 764 765 765 765 764 764 764 763 763 762 762 761 760 759 758 758 757 756 755 754 753 752 751 750 749 748 747 745 744 743 742 741 740 738 737 737 736 735 734 732 731 730 729 729 728 727 727 727 726 725 725 724 723 722 722 721 720 719 718 717 716 715 714 713 712 712 711
763 763 763 763 763 763 763 763 762 762 761 761 760 759 758 758 757 756 755 754 753 752 751 750 749 748 747 746 744 743 742 741 740 738 737 736 735 734 733 732 731 730 729 727 727 726 726 725 725 724 724 724 723 722 721 720 719 718 717 717 716 714 713 712 711 710 709 708 707
762 762 762 762 762 762 762 762 761 761 760 759 759 758 757 757 756 755 754 752 752 750 749 748 747 746 745 743 742 741 739 738 737 736 735 734 733 732 731 729 728 727 726 725 725 724 723 723 722 722 722 722 721 720 719 718 717 716 715 713 712 711 710 709 708 707 706 705 704
761 761 761 761 761 761 761 761 760 759 759 758 757 757 756 755 754 753 752 751 750 748 747 746 745 744 742 741 740 738 737 736 735 734 733 732 730 729 728 727 726 725 724 723 722 722 721 721 720 720 719 719 719 718 717 715 714 713 712 711 709 708 707 706 705 704 702 702 701
760 760 760 760 760 760 760 759 759 758 758 757 756 755 754 753 752 751 750 749 748 747 746 744 743 742 741 739 738 737 735 734 733 732 731 729 728 727 726 725 723 722 722 721 720 720 719 718 718 717 717 717 716 715 714 712 711 710 709 707 706 705 704 703 702 701 700 699 698
759 759 759 759 759 759 759 758 758 757 757 756 755 754 753 752 751 750 749 747 746 745 744 743 741 740 738 737 736 734 733 732 731 729 728 727 726 725 723 722 721 720 720 719 718 717 717 716 716 715 714 714 713 712 711 710 708 707 706 704 703 702 701 700 699 697 697 696 695
758 758 758 758 758 758 757 757 756 756 755 754 753 752 751 750 749 748 747 746 745 743 742 741 739 738 736 735 734 732 731 730 728 727 727 725 724 723 722 720 719 718 717 717 716 716 715 714 713 712 712 711 710 709 708 707 705 704 702 701 700 699 698 697 695 694 693 692 691
757 757 757 757 757 757 756 756 755 754 753 753 752 751 750 749 747 747 745 744 743 742 740 739 737 736 734 733 732 730 729 728 727 726 725 724 722 721 720 718 717 717 716 715 714 713 712 712 711 710 709 708 707 706 705 703 702 701 699 698 697 695 694 693 692 691 689 688 687
757 757 756 756 756 755 755 754 753 753 752 751 750 749 748 747 746 745 744 742 741 740 738 737 736 734 733 731 730 728 727 726 725 724 723 722 721 719 718 717 716 715 714 713 712 711 710 709 708 707 706 705 704 703 702 700 699 697 696 694 693 692 691 689 688 687 686 685 684
756 755 755 755 755 754 753 753 752 751 751 750 749 748 747 746 745 743 742 741 739 738 737 735 734 732 731 729 728 727 725 724 723 722 721 720 719 718 717 715 714 713 712 711 710 708 707 707 705 704 703 702 701 700 698 697 695 694 692 691 690 688 687 686 684 683 682 681 680
754 754 754 754 753 753 752 751 751 750 749 748 747 746 745 744 743 742 740 739 737 736 735 733 732 730 729 727 726 725 724 722 721 720 719 718 717 716 715 713 712 711 709 708 707 706 705 704 703 702 701 700 698 697 695 694 692 691 689 688 686 685 683 682 681 679 678 677 676
753 753 753 752 752 751 751 750 749 748 747 747 746 745 743 742 741 740 739 737 736 734 733 732 730 728 727 726 724 723 722 721 720 718 717 717 716 715 713 712 710 708 707 706 705 703 702 701 700 699 698 697 696 694 692 691 689 688 686 685 683 681 680 678 677 676 674 673 672
752 752 752 751 750 750 749 748 748 747 746 745 744 743 742 741 739 738 737 736 735 733 731 730 728 727 725 724 722 721 720 719 718 717 716 715 714 713 712 710 708 706 705 703 702 701 700 699 697 696 696 695 693 692 690 688 687 685 683 682 680 678 677 675 674 672 671 670 669
751 751 750 750 749 748 748 747 747 746 745 744 742 742 741 739 738 737 736 735 733 732 730 728 726 725 723 722 721 719 718 717 717 716 715 714 712 711 710 708 706 704 702 701 700 698 697 696 695 694 693 692 691 689 687 686 684 682 680 679 677 675 674 672 671 670 668 667 666
750 750 749 748 748 747 747 746 745 744 743 742 741 740 739 738 737 735 734 733 732 730 728 727 725 723 722 721 719 718 717 716 715 714 713 712 711 709 708 706 704 702 700 699 697 696 695 694 692 692 691 690 688 687 685 683 682 680 678 677 675 673 672 670 669 668 666 664 663
749 749 748 747 747 746 745 745 744 743 742 741 740 739 738 737 735 734 732 731 730 728 727 725 723 722 720 719 718 717 715 714 713 712 712 710 709 707 705 704 702 700 698 697 695 694 692 692 690 689 688 687 686 685 683 682 680 678 676 675 673 672 670 668 667 665 664 662 661